GLOBALSTAR M035 [-]

Last updated on Fri Dec 29 2023 00:02:56 GMT+0000 (Coordinated Universal Time)

1 25851U 99037A 23361.74544156 -.00000065 00000+0 -40832-4 0 9993 2 25851 51.9910 173.4936 0013707 184.6450 265.1646 11.04528106 36879

Satellite not in orbit